{"data":{"norad_id":59605,"epoch":"2026-09-21T14:35:13.780032Z","epoch_age_seconds":72546,"freshness":"FRESH","line1":"1 59605U 24080E   26264.60779838 -.00000999  00000+0 -26792-4 0  9995","line2":"2 59605  43.0030  11.6545 0001194 282.5153  77.5565 15.27556025134494","mean_motion":15.27556025,"eccentricity":0.0001194,"inclination_deg":43.003,"raan_deg":11.6545,"arg_perigee_deg":282.5153,"mean_anomaly_deg":77.5565,"bstar":-2.6792e-5,"rev_number":13449,"period_min":94.268228230778,"perigee_km":482.30165256189,"apogee_km":483.94012094524,"semimajor_km":6861.2578867536,"source":"CELESTRAK","updated_at":"2026-09-22T09:00:49.009600Z"}}